Location: Firnhaberau
(48.4049°N, 10.8963°E)
Time: 12:38:58
(UTC+00:00)

Tianhe-1 - Visible Passes

Search period start: 18 June 2021 00:00
Search period end: 28 June 2021 00:00
Orbit: 374 x 386 km, 41.5° (Epoch: 18 June)

Date Brightness Start Highest point End Pass type
(mag) Time Alt. Az. Time Alt. Az. Time Alt. Az.
22 Jun 3.1 02:25:17 10° SSW 02:27:15 15° SSE 02:29:13 10° SE visible
23 Jun 3.4 01:26:30 11° SSE 01:26:30 11° SSE 01:27:33 10° SE visible
24 Jun 2.8 02:00:10 14° SSW 02:01:39 19° SSE 02:03:58 10° ESE visible
25 Jun 3.3 01:01:43 14° SE 01:01:43 14° SE 01:02:41 10° SE visible
26 Jun 2.4 01:35:24 20° S 01:35:59 21° S 01:38:28 10° ESE visible
27 Jun 3.6 00:37:02 11° SE 00:37:02 11° SE 00:37:19 10° ESE visible
27 Jun 2.4 02:09:08 12° SW 02:11:14 22° S 02:13:46 10° SE visible
